FW9985 Weather Reports


time (UTC)temp
F
wind
direction
speed
knots
gust
knots
rain 1hr
in
rain 24hr
in
rain mn
in
humidity
%
barometer
mb
20260505124533 64 215 7.8 14.8 0.00 0.00 0.00 66 1008.0
20260505123030 64 232 7.8 19.1 0.00 0.00 0.00 67 1007.7
20260505121537 64 215 11.3 18.2 0.00 0.00 0.00 66 1007.9
20260505120033 63 239 10.4 16.5 0.00 0.00 0.00 67 1007.9
20260505114530 63 209 9.6 13.9 0.00 0.00 0.00 68 1007.9
20260505113031 63 210 7.8 13.9 0.00 0.00 0.00 67 1007.9
20260505111530 62 221 8.7 13.0 0.00 0.00 0.00 67 1007.9
20260505101535 62 241 7.8 18.2 0.00 0.00 0.00 67 1007.3
20260505100034 63 221 9.6 16.5 0.00 0.00 0.00 67 1007.1
20260505094529 63 220 11.3 18.2 0.00 0.00 0.00 66 1007.0
20260505093033 63 241 9.6 17.4 0.00 0.00 0.00 67 1006.8
20260505091535 63 223 12.2 21.7 0.00 0.00 0.00 66 1006.6
20260505090040 63 228 11.3 22.6 0.00 0.00 0.00 67 1006.6
20260505084537 63 231 11.3 21.7 0.00 0.00 0.00 66 1006.4
20260505083031 63 221 10.4 17.4 0.00 0.00 0.00 67 1006.5
20260505081532 64 206 13.0 23.5 0.00 0.00 0.00 66 1006.3
20260505080041 64 224 12.2 18.2 0.00 0.00 0.00 66 1006.2
20260505074531 63 224 12.2 19.1 0.00 0.00 0.00 67 1006.2
20260505073035 64 218 11.3 19.1 0.00 0.00 0.00 66 1006.0
20260505071537 64 201 12.2 20.9 0.00 0.00 0.00 66 1005.9
20260505070034 64 232 11.3 16.5 0.00 0.00 0.00 66 1006.0
20260505064536 64 222 13.0 18.2 0.00 0.00 0.00 66 1006.0
20260505063031 63 226 7.0 20.9 0.00 0.00 0.00 67 1006.2
20260505061532 64 215 10.4 17.4 0.00 0.00 0.00 67 1006.2
20260505060037 64 234 6.1 14.8 0.00 0.00 0.00 67 1006.4
20260505054530 64 246 7.8 13.0 0.00 0.00 0.00 65 1006.6
20260505053035 64 216 10.4 16.5 0.00 0.00 0.00 65 1006.9
20260505051531 64 211 8.7 14.8 0.00 0.00 0.00 67 1007.0
20260505041529 63 212 7.0 14.8 0.00 0.00 0.00 66 1007.0
20260505040031 63 229 7.8 13.0 0.00 0.00 0.00 67 1007.0
20260505034528 63 234 8.7 13.0 0.00 0.00 0.00 67 1007.1
20260505033035 63 209 7.0 13.0 0.00 0.00 0.00 67 1006.9
20260505031541 63 206 6.1 9.6 0.00 0.00 0.00 67 1007.0
20260505030030 63 210 5.2 13.9 0.00 0.00 0.00 66 1006.9
20260505024544 63 206 6.1 10.4 0.00 0.00 0.00 66 1007.1
20260505023038 63 209 6.1 11.3 0.00 0.00 0.00 65 1007.2
20260505021529 64 206 6.1 11.3 0.00 0.00 0.00 64 1007.3
20260505020030 64 212 4.3 8.7 0.00 0.00 0.00 63 1007.3
20260505014537 64 224 4.3 8.7 0.00 0.00 0.00 62 1007.2
20260505013032 65 231 5.2 12.2 0.00 0.00 0.00 61 1007.2
20260505011530 65 218 6.1 9.6 0.00 0.00 0.00 60 1007.0
20260505010030 66 208 7.8 14.8 0.00 0.00 0.00 58 1007.0
20260505004530 67 235 8.7 16.5 0.00 0.00 0.00 56 1006.8
20260505003032 67 217 9.6 17.4 0.00 0.00 0.00 55 1006.6
20260505001536 68 246 12.2 25.2 0.00 0.00 0.00 54 1006.6
20260505000032 68 238 9.6 17.4 0.00 0.00 0.00 53 1006.2
20260504234530 69 203 9.6 20.0 0.00 0.00 0.00 52 1006.2
20260504233030 69 229 9.6 20.9 0.00 0.00 0.00 51 1006.4
20260504231531 69 248 12.2 20.0 0.00 0.00 0.00 52 1006.4
20260504230031 70 220 13.0 17.4 0.00 0.00 0.00 52 1006.6
20260504224537 70 223 13.9 23.5 0.00 0.00 0.00 52 1006.5
20260504223032 71 265 17.4 26.9 0.00 0.00 0.00 50 1006.7
20260504221531 71 267 15.6 27.8 0.00 0.00 0.00 50 1006.7
20260504220031 71 240 14.8 21.7 0.00 0.00 0.00 51 1006.8
20260504214532 71 253 12.2 24.3 0.00 0.00 0.00 50 1006.9
20260504213030 71 232 11.3 20.9 0.00 0.00 0.00 51 1006.8
20260504211531 71 271 11.3 17.4 0.00 0.00 0.00 50 1006.7
20260504210046 72 233 12.2 20.9 0.00 0.00 0.00 50 1006.7
20260504204544 72 207 8.7 15.6 0.00 0.00 0.00 49 1006.6
20260504203036 73 257 16.5 25.2 0.00 0.00 0.00 48 1006.6
20260504201532 72 225 7.0 14.8 0.00 0.00 0.00 49 1006.7
20260504200032 71 249 12.2 21.7 0.00 0.00 0.00 49 1007.0
20260504194531 70 233 12.2 21.7 0.00 0.00 0.00 52 1007.2
20260504193035 70 218 13.0 25.2 0.00 0.00 0.00 51 1007.3
20260504191532 71 223 9.6 20.0 0.00 0.00 0.00 50 1007.5
20260504190031 70 219 11.3 17.4 0.00 0.00 0.00 51 1007.7
20260504184528 69 218 9.6 17.4 0.00 0.00 0.00 52 1007.7
20260504183030 69 226 13.0 23.5 0.00 0.00 0.00 50 1007.8
20260504181529 69 243 10.4 20.0 0.00 0.00 0.00 51 1008.1
20260504180030 68 225 10.4 20.0 0.00 0.00 0.00 52 1008.1
20260504174530 68 175 12.2 17.4 0.00 0.00 0.00 51 1008.3
20260504173030 68 205 9.6 21.7 0.00 0.00 0.00 51 1008.3
20260504171529 66 234 10.4 20.9 0.00 0.00 0.00 53 1008.6